Terminal Aerodrome Forecast
Issued by NWS Binghamton, NY

Home | Current Version | Previous Version | Text Only | Print | Product List | Glossary On
Versions: 1 2 3 4 5 6 7 8 9 10 11 12 13 14 15 16 17 18 19 20 21 22 23
000
FTUS41 KBGM 270500
TAFBGM
TAF
KBGM 270531Z 2706/2806 31007KT P6SM BKN035 OVC100
      TEMPO 2706/2708 4SM -SHSN
     FM270900 33005KT P6SM OVC025
     FM271200 30006KT P6SM SCT025 BKN040=

USA.gov is the U.S. government's official web portal to all federal, state and local government web resources and services.